Le nostre stazioni meteo in Italia

Pubblicità
Il mio iltempo24.it
Luqa, Malta (16597): Temperatura & dewpoint: 15.02.2020 05:00:00 - 21.02.2020 05:00:00 (CET)Luqa, Malta (16597): velocità del vento: 15.02.2020 05:00:00 - 21.02.2020 05:00:00 (CET)Luqa, Malta (16597): direzione del vento: 15.02.2020 05:00:00 - 21.02.2020 05:00:00 (CET)Luqa, Malta (16597): reduced air pressure: 15.02.2020 05:00:00 - 21.02.2020 05:00:00 (CET)Luqa, Malta (16597): visibility: 15.02.2020 05:00:00 - 21.02.2020 05:00:00 (CET)
Data & Tempo tt [°C] td [°C] ff [km/h] ff [kn] dd ppp [hPa] vv [km]
21.02.2020 05:00:00 9,0 5,0 9 5 NO - 10
21.02.2020 04:00:00 9,6 4,8 9 5 ONO 1023,5 10
21.02.2020 03:00:00 10,0 5,0 9 5 NO - 10
21.02.2020 02:00:00 11,0 4,0 9 5 NO - 10
21.02.2020 01:00:00 10,7 5,2 13 7 NO 1023,9 10
21.02.2020 00:00:00 11,0 6,0 5 3 NO - 10
20.02.2020 23:00:00 12,0 6,0 11 6 NNO - 10
20.02.2020 22:00:00 12,5 9,8 11 6 NNE 1023,5 10
20.02.2020 21:00:00 13,0 10,0 15 8 NO - 10
20.02.2020 20:00:00 13,0 10,0 22 12 NO - 10
20.02.2020 19:00:00 13,4 10,1 21 11 ONO 1022,3 10
20.02.2020 18:00:00 14,0 10,0 22 12 ONO - 10
20.02.2020 17:00:00 15,0 10,0 31 17 NO - 10
20.02.2020 16:00:00 16,3 9,4 31 17 ONO 1021,0 10
20.02.2020 15:00:00 16,0 9,0 31 17 ONO - 10
20.02.2020 14:00:00 16,0 7,0 29 16 NO - 10
20.02.2020 13:00:00 17,4 6,5 29 16 NO 1021,6 10
20.02.2020 12:00:00 17,0 6,0 31 17 NNO - 10
20.02.2020 11:00:00 17,0 7,0 29 16 NNO - 10
20.02.2020 10:00:00 15,6 8,2 31 17 NO 1022,3 10
20.02.2020 09:00:00 15,0 9,0 28 15 NNO - 10
20.02.2020 08:00:00 13,0 9,0 16 9 ONO - 10
20.02.2020 07:00:00 11,9 9,5 16 9 NO 1021,2 10
20.02.2020 06:00:00 12,0 9,0 18 10 NO - 10
20.02.2020 05:00:00 12,0 9,0 18 10 NO - 10
20.02.2020 04:00:00 12,3 9,0 21 11 NO 1020,8 10
20.02.2020 03:00:00 13,0 9,0 26 14 NO - 10
20.02.2020 02:00:00 13,0 9,0 29 16 NO - 10
20.02.2020 01:00:00 12,7 8,6 29 16 NO 1021,5 10
20.02.2020 00:00:00 13,0 8,0 31 17 NO - 10
19.02.2020 23:00:00 12,0 9,0 31 17 NO - 10
19.02.2020 22:00:00 12,2 8,4 29 16 NO 1022,0 10
19.02.2020 21:00:00 12,0 9,0 35 19 NO - 10
19.02.2020 20:00:00 13,0 10,0 29 16 NO - 10
19.02.2020 19:00:00 13,4 10,5 26 14 NO 1021,4 10
19.02.2020 18:00:00 14,0 11,0 34 18 NO - 10
19.02.2020 17:00:00 14,0 10,0 29 16 NO - 10
19.02.2020 16:00:00 15,1 9,8 28 15 NO 1021,3 10
19.02.2020 15:00:00 16,0 10,0 29 16 ONO - 10
19.02.2020 14:00:00 17,0 10,0 35 19 ONO - 10
19.02.2020 13:00:00 17,0 10,6 35 19 ONO 1022,2 10
19.02.2020 12:00:00 16,0 10,0 29 16 NO - 10
19.02.2020 11:00:00 16,0 10,0 21 11 NNO - 10
19.02.2020 10:00:00 15,0 10,0 22 12 N 1023,4 10
19.02.2020 09:00:00 15,0 10,0 29 16 NNO - 10
19.02.2020 08:00:00 13,0 10,0 31 17 NO - 10
19.02.2020 07:00:00 12,1 10,4 26 14 NO 1022,3 10
19.02.2020 06:00:00 12,0 10,0 28 15 NO - 10
19.02.2020 05:00:00 12,0 10,0 11 6 NO - 10
19.02.2020 04:00:00 12,2 10,1 11 6 ONO 1022,5 10
19.02.2020 03:00:00 12,0 10,0 15 8 NO - 10
19.02.2020 02:00:00 12,0 10,0 11 6 NO - 10
19.02.2020 01:00:00 11,6 10,3 21 11 NO 1023,2 10
19.02.2020 00:00:00 12,0 10,0 15 8 NO - 10
18.02.2020 23:00:00 12,0 10,0 16 9 NO - 10
18.02.2020 22:00:00 12,8 10,8 18 10 NO 1024,0 10
18.02.2020 21:00:00 13,0 10,0 15 8 ONO - 10
18.02.2020 20:00:00 12,0 10,0 15 8 NO - 10
18.02.2020 19:00:00 12,6 9,1 13 7 ONO 1023,6 10
18.02.2020 18:00:00 13,0 9,0 16 9 ONO - 10
18.02.2020 17:00:00 14,0 9,0 21 11 ONO - 10
18.02.2020 16:00:00 15,3 8,9 24 13 O 1023,0 10
18.02.2020 15:00:00 15,0 9,0 26 14 ONO - 10
18.02.2020 14:00:00 16,0 10,0 29 16 NO - 10
18.02.2020 13:00:00 16,0 8,7 29 16 ONO 1024,3 10
18.02.2020 12:00:00 16,0 8,0 28 15 O - 10
18.02.2020 11:00:00 16,0 8,0 28 15 ONO - 10
18.02.2020 10:00:00 14,9 8,4 29 16 ONO 1025,7 10
18.02.2020 09:00:00 14,0 8,0 22 12 ONO - 10
18.02.2020 08:00:00 13,0 8,0 28 15 ONO - 10
18.02.2020 07:00:00 12,1 8,4 21 11 ONO 1025,0 10
18.02.2020 06:00:00 11,0 8,0 13 7 O - 10
18.02.2020 05:00:00 11,0 9,0 11 6 ONO - 10
18.02.2020 04:00:00 11,1 9,1 11 6 ONO 1025,1 10
18.02.2020 03:00:00 11,0 9,0 11 6 ONO - 10
18.02.2020 02:00:00 11,0 10,0 11 6 ONO - 10
18.02.2020 01:00:00 10,2 8,2 9 5 O 1026,3 10
18.02.2020 00:00:00 10,0 8,0 11 6 O - 10
17.02.2020 23:00:00 10,0 8,0 9 5 O - 10
17.02.2020 22:00:00 9,4 6,8 8 4 O 1027,4 10
17.02.2020 21:00:00 10,0 7,0 8 4 O - 10
17.02.2020 20:00:00 11,0 7,0 8 4 O - 10
17.02.2020 19:00:00 11,9 8,0 5 3 O 1027,3 10
17.02.2020 18:00:00 13,0 8,0 8 4 SSO - 10
17.02.2020 17:00:00 15,0 9,0 8 4 SSO - 10
17.02.2020 16:00:00 15,9 8,6 4 2 - 1026,9 10
17.02.2020 15:00:00 16,0 7,0 8 4 NNE - 10
17.02.2020 14:00:00 16,0 7,0 9 5 NNE - 10
17.02.2020 13:00:00 16,2 7,7 13 7 NE 1028,1 10
17.02.2020 12:00:00 16,0 8,0 9 5 ENE - 10
17.02.2020 11:00:00 15,0 8,0 9 5 NE - 10
17.02.2020 10:00:00 14,4 8,0 9 5 NE 1029,4 10
17.02.2020 09:00:00 14,0 9,0 9 5 - - 10
17.02.2020 08:00:00 9,0 8,0 4 2 - - 10
17.02.2020 07:00:00 8,1 7,4 4 2 - 1029,1 10
17.02.2020 06:00:00 8,0 7,0 4 2 NO - 10
17.02.2020 05:00:00 8,0 7,0 2 1 - - 10
17.02.2020 04:00:00 8,7 7,5 2 1 NE 1028,9 10
17.02.2020 03:00:00 9,0 8,0 4 2 ENE - 10
17.02.2020 02:00:00 9,0 7,0 2 1 NNE - 10
17.02.2020 01:00:00 10,0 8,2 2 1 - 1030,2 10
17.02.2020 00:00:00 10,0 8,0 2 1 - - 10
16.02.2020 23:00:00 10,0 8,0 2 1 - - 10
16.02.2020 22:00:00 9,8 7,8 4 2 ESE 1030,0 10
16.02.2020 21:00:00 11,0 8,0 4 2 SE - 10
16.02.2020 20:00:00 12,0 8,0 5 3 ESE - 10
16.02.2020 19:00:00 11,8 8,2 5 3 ESE 1029,3 10
16.02.2020 18:00:00 12,0 8,0 9 5 ESE - 10
16.02.2020 17:00:00 14,0 9,0 13 7 SSE - 10
16.02.2020 16:00:00 15,2 9,1 16 9 ESE 1028,2 10
16.02.2020 15:00:00 15,0 9,0 18 10 ESE - 10
16.02.2020 14:00:00 16,0 9,0 16 9 SE - 10
16.02.2020 13:00:00 15,4 8,8 21 11 ESE 1028,8 10
16.02.2020 12:00:00 16,0 10,0 18 10 ESE - 10
16.02.2020 11:00:00 16,0 9,0 13 7 SE - 10
16.02.2020 10:00:00 14,2 9,9 15 8 SE 1029,7 10
16.02.2020 09:00:00 15,0 11,0 15 8 SE - 10
16.02.2020 08:00:00 13,0 11,0 9 5 SE - 10
16.02.2020 07:00:00 9,9 8,3 9 5 SE 1028,0 10
16.02.2020 06:00:00 11,0 9,0 9 5 SSE - 10
16.02.2020 05:00:00 9,0 7,0 8 4 S - 10
16.02.2020 04:00:00 8,8 7,7 8 4 SSE 1028,3 10
16.02.2020 03:00:00 9,0 8,0 5 3 SSE - 10
16.02.2020 02:00:00 11,0 8,0 8 4 SSE - 10
16.02.2020 01:00:00 9,8 7,9 5 3 SSE 1027,7 10
16.02.2020 00:00:00 10,0 8,0 5 3 S - 10
15.02.2020 23:00:00 10,0 8,0 4 2 - - 10
15.02.2020 22:00:00 10,7 7,6 5 3 O 1027,4 10
15.02.2020 21:00:00 11,0 8,0 4 2 O - 10
15.02.2020 20:00:00 11,0 7,0 5 3 O - 10
15.02.2020 19:00:00 12,3 7,1 4 2 OSO 1026,3 10
15.02.2020 18:00:00 13,0 7,0 5 3 NO - 10
15.02.2020 17:00:00 15,0 8,0 11 6 NO - 10
15.02.2020 16:00:00 16,7 6,4 11 6 NNO 1024,7 10
15.02.2020 15:00:00 18,0 5,0 9 5 - - 10
15.02.2020 14:00:00 17,0 6,0 13 7 N - 10
15.02.2020 13:00:00 17,1 6,9 16 9 N 1023,9 10
15.02.2020 12:00:00 17,0 8,0 21 11 N - 10
15.02.2020 11:00:00 17,0 10,0 18 10 N - 10
15.02.2020 10:00:00 15,6 10,2 29 16 N 1024,1 10
15.02.2020 09:00:00 15,0 11,0 22 12 NNO - 10
15.02.2020 08:00:00 14,0 11,0 16 9 NNO - 10
15.02.2020 07:00:00 11,2 9,4 18 10 NNO 1022,5 10
15.02.2020 06:00:00 11,0 9,0 11 6 NO - 10
15.02.2020 05:00:00 11,0 9,0 22 12 NO - 10

tt = Temperatura
td = dewpoint
ff = velocità del vento
dd = direzione del vento
ppp = reduced air pressure
vv = visibility

Stazioni seguenti

WeatherPro
AMSI
MeteoEarth